Weather History for PANN - August, 2013

Change the Weather History Date:

Friday, August 23, 2013

  Actual Average Record
Temperature  
Mean Temperature 61 °F -  
Max Temperature 71 °F 61 °F 78 °F (1987)
Min Temperature 51 °F 42 °F 37 °F (2008)
Degree Days  
Heating Degree Days 4    
Growing Degree Days 11 (Base 50)    
Moisture  
Dew Point 51 °F    
Average Humidity 93    
Maximum Humidity 100    
Minimum Humidity 53    
Precipitation  
Precipitation 1.11 in - - ()
Sea Level Pressure  
Sea Level Pressure 29.55 in    
Wind  
Wind Speed 5 mph (West)    
Max Wind Speed 12 mph    
Max Gust Speed 20 mph    
Visibility 6 miles    
Events Rain    
Averages and records for this station are not official NWS values.
T = Trace of Precipitation, MM = Missing Value Source: NWS Daily Summary

Daily Weather History Graph

Daily Weather History Graph

Search for Another Location

Airport or City:

Trip Planner

Search our weather history database for the weather conditions in past years. The results will help you decide how hot, cold, wet, or windy it might be!

Date:

Astronomy

Aug. 23, 2013 Rise Set
Actual Time 6:11 AM AKDT 9:44 PM AKDT
Civil Twilight 5:11 AM AKDT 10:42 PM AKDT
Nautical Twilight 3:35 AM AKDT 12:15 AM AKDT
Astronomical Twilight Sun does not rise Sun does not rise
Moon 9:28 PM AKDT (8/23) 10:48 AM AKDT (8/23)
Length of Visible Light 17h 31m
Length of Day
15h 32m
Waning Gibbous, 90% of the Moon is Illuminated
Aug 23
Waning Gibbous
Aug 28
Last Quarter
Sep 5
New
Sep 12
First Quarter
Sep 19
Full

Hourly Weather History & Observations

Time (AKDT) Temp. Dew Point Humidity Pressure Visibility Wind Dir Wind Speed Gust Speed Precip Events Conditions
12:03 AM 53.6 °F 51.8 °F 94% 29.54 in 7.0 mi SSE 3.5 mph - 0.01 in Rain Light Rain
12:15 AM 53.6 °F 51.8 °F 94% 29.54 in 5.0 mi South 3.5 mph - 0.03 in Rain Rain
12:53 AM 52.0 °F 51.1 °F 97% 29.55 in 4.0 mi South 3.5 mph - 0.10 in Rain Rain
1:17 AM 51.8 °F 50.0 °F 94% 29.53 in 4.0 mi South 4.6 mph - 0.05 in Rain Rain
1:53 AM 52.0 °F 50.0 °F 93% 29.54 in 3.0 mi SSE 8.1 mph - 0.19 in Rain Rain
2:48 AM 51.8 °F 50.0 °F 94% 29.52 in 6.0 mi SW 6.9 mph - 0.14 in Rain Rain
2:53 AM 52.0 °F 50.0 °F 93% 29.54 in 6.0 mi SW 6.9 mph - 0.15 in Rain Light Rain
3:23 AM 51.8 °F 50.0 °F 94% 29.52 in 9.0 mi SW 8.1 mph - 0.03 in Rain Light Rain
3:33 AM 51.8 °F 50.0 °F 94% 29.52 in 10.0 mi SW 6.9 mph - 0.04 in Rain Light Rain
3:53 AM 52.0 °F 50.0 °F 93% 29.54 in 10.0 mi Variable 4.6 mph - 0.05 in Rain Light Rain
4:08 AM 51.8 °F 50.0 °F 94% 29.52 in 9.0 mi SW 6.9 mph - 0.00 in Rain Light Rain
4:20 AM 51.8 °F 50.0 °F 94% 29.52 in 4.0 mi SW 5.8 mph - 0.01 in Rain Light Rain
4:31 AM 51.8 °F 50.0 °F 94% 29.52 in 2.5 mi SW 5.8 mph - 0.02 in Rain Light Rain
4:39 AM 51.8 °F 50.0 °F 94% 29.52 in 3.0 mi SW 5.8 mph - 0.03 in Rain Light Rain
4:53 AM 51.1 °F 50.0 °F 96% 29.53 in 3.0 mi SW 4.6 mph - 0.04 in Rain Light Rain
5:04 AM 51.8 °F 50.0 °F 94% 29.51 in 6.0 mi SW 6.9 mph - 0.00 in Rain Light Rain
5:53 AM 52.0 °F 50.0 °F 93% 29.53 in 4.0 mi SW 11.5 mph 19.6 mph 0.02 in Rain Light Rain
6:43 AM 51.8 °F 50.0 °F 94% 29.51 in 3.0 mi SW 5.8 mph - 0.02 in Rain Light Rain
6:53 AM 51.1 °F 50.0 °F 96% 29.53 in 2.5 mi SW 5.8 mph - 0.03 in Rain Light Rain
6:59 AM 51.8 °F 50.0 °F 94% 29.51 in 1.8 mi SW 5.8 mph - 0.01 in Rain Light Rain
7:10 AM 51.8 °F 50.0 °F 94% 29.51 in 2.0 mi SW 5.8 mph - 0.01 in Rain Light Rain
7:37 AM 51.8 °F 50.0 °F 94% 29.51 in 1.5 mi Variable 4.6 mph - 0.03 in Rain Light Rain
7:53 AM 51.1 °F 50.0 °F 96% 29.52 in 2.0 mi SW 5.8 mph - 0.05 in Rain Light Rain
8:17 AM 51.8 °F 50.0 °F 94% 29.51 in 3.0 mi SW 6.9 mph - 0.02 in Rain Light Rain
8:42 AM 51.8 °F 51.8 °F 100% 29.50 in 1.8 mi Variable 4.6 mph - 0.04 in Rain Light Rain
8:49 AM 51.8 °F 51.8 °F 100% 29.51 in 2.0 mi Variable 3.5 mph - 0.04 in Rain Light Rain
8:53 AM 52.0 °F 51.1 °F 97% 29.52 in 2.5 mi Variable 3.5 mph - 0.05 in Rain Light Rain
9:12 AM 53.6 °F 51.8 °F 94% 29.50 in 4.0 mi Variable 5.8 mph - 0.00 in Rain Light Rain
9:23 AM 53.6 °F 51.8 °F 94% 29.50 in 10.0 mi Variable 4.6 mph - 0.01 in Rain Light Rain
9:43 AM 53.6 °F 51.8 °F 94% 29.51 in 10.0 mi Variable 3.5 mph - 0.01 in Rain Light Rain
9:53 AM 53.1 °F 51.1 °F 93% 29.52 in 10.0 mi Variable 5.8 mph - 0.02 in Rain Light Rain
10:17 AM 53.6 °F 51.8 °F 94% 29.51 in 7.0 mi WNW 4.6 mph - 0.01 in Rain Light Rain
10:22 AM 53.6 °F 51.8 °F 94% 29.51 in 6.0 mi Variable 3.5 mph - 0.01 in Rain Light Rain
10:29 AM 53.6 °F 51.8 °F 94% 29.51 in 6.0 mi Calm Calm - 0.02 in Rain Light Rain
10:53 AM 53.1 °F 52.0 °F 96% 29.53 in 7.0 mi Variable 3.5 mph - 0.03 in Rain Light Rain
11:07 AM 53.6 °F 51.8 °F 94% 29.51 in 6.0 mi Calm Calm - 0.00 in Rain Light Rain
11:32 AM 53.6 °F 51.8 °F 94% 29.51 in 8.0 mi Calm Calm - 0.02 in Rain Light Rain
11:53 AM 54.0 °F 52.0 °F 93% 29.53 in 4.0 mi WSW 4.6 mph - 0.03 in Rain Light Rain
11:59 AM 53.6 °F 51.8 °F 94% 29.51 in 2.5 mi Variable 5.8 mph - 0.00 in Rain Light Rain
12:07 PM 53.6 °F 51.8 °F 94% 29.51 in 1.8 mi WSW 5.8 mph - 0.03 in Rain Light Rain
12:10 PM 53.6 °F 51.8 °F 94% 29.51 in 2.5 mi Variable 4.6 mph - 0.03 in Rain Light Rain
12:14 PM 53.6 °F 51.8 °F 94% 29.51 in 3.0 mi Variable 4.6 mph - 0.04 in Rain Light Rain
12:22 PM 53.6 °F 51.8 °F 94% 29.51 in 4.0 mi SW 4.6 mph - 0.04 in Rain Light Rain
12:28 PM 53.6 °F 51.8 °F 94% 29.51 in 1.5 mi WSW 5.8 mph - 0.05 in Rain Rain
12:39 PM 53.6 °F 51.8 °F 94% 29.51 in 2.5 mi Variable 4.6 mph - 0.09 in Rain Light Rain
12:45 PM 53.6 °F 51.8 °F 94% 29.51 in 2.5 mi West 4.6 mph - 0.09 in Rain Light Rain
12:53 PM 54.0 °F 52.0 °F 93% 29.54 in 2.0 mi Variable 3.5 mph - 0.12 in Rain Light Rain
1:00 PM 53.6 °F 51.8 °F 94% 29.52 in 5.0 mi Variable 4.6 mph - 0.00 in Rain Light Rain
1:07 PM 53.6 °F 51.8 °F 94% 29.52 in 3.0 mi Variable 5.8 mph - 0.00 in Rain Light Rain
1:26 PM 55.4 °F 53.6 °F 94% 29.52 in 9.0 mi Variable 3.5 mph - 0.00 in Rain Light Rain
1:33 PM 55.4 °F 53.6 °F 94% 29.52 in 10.0 mi Variable 3.5 mph - 0.01 in Rain Light Rain
1:42 PM 53.6 °F 53.6 °F 100% 29.53 in 1.8 mi WNW 5.8 mph - 0.01 in Rain Rain
1:53 PM 54.0 °F 52.0 °F 93% 29.55 in 3.0 mi Variable 3.5 mph - 0.07 in Rain Light Rain
2:03 PM 55.4 °F 53.6 °F 94% 29.53 in 10.0 mi Variable 3.5 mph - 0.00 in Rain Light Rain
2:19 PM 55.4 °F 53.6 °F 94% 29.53 in 9.0 mi Variable 3.5 mph - 0.00 in Rain Light Rain
2:30 PM 55.4 °F 53.6 °F 94% 29.53 in 8.0 mi NW 4.6 mph - 0.01 in Rain Light Rain
2:42 PM 55.4 °F 51.8 °F 88% 29.53 in 3.0 mi NNW 5.8 mph - 0.01 in Rain Light Rain
2:45 PM 55.4 °F 51.8 °F 88% 29.53 in 1.8 mi NW 9.2 mph - 0.03 in Rain Heavy Rain
2:53 PM 54.0 °F 52.0 °F 93% 29.56 in 1.5 mi Variable 4.6 mph - 0.06 in Rain Rain
3:01 PM 53.6 °F 51.8 °F 94% 29.54 in 3.0 mi WNW 4.6 mph - 0.01 in Rain Light Rain
3:12 PM 53.6 °F 51.8 °F 94% 29.54 in 3.0 mi WNW 3.5 mph - 0.02 in Rain Light Rain
3:15 PM 53.6 °F 51.8 °F 94% 29.54 in 2.5 mi WNW 5.8 mph - 0.03 in Rain Light Rain
3:17 PM 53.6 °F 51.8 °F 94% 29.54 in 3.0 mi NW 5.8 mph - 0.03 in Rain Light Rain
3:28 PM 53.6 °F 51.8 °F 94% 29.55 in 5.0 mi WNW 5.8 mph - 0.04 in Rain Light Rain
3:53 PM 54.0 °F 51.1 °F 90% 29.57 in 8.0 mi NW 6.9 mph - 0.04 in Rain Light Rain
4:00 PM 53.6 °F 51.8 °F 94% 29.55 in 9.0 mi WNW 6.9 mph - 0.00 in Rain Light Rain
4:27 PM 53.6 °F 51.8 °F 94% 29.56 in 10.0 mi NW 4.6 mph - 0.00 in Rain Light Rain
4:53 PM 54.0 °F 51.1 °F 90% 29.59 in 10.0 mi NW 4.6 mph - 0.00 in Rain Light Rain
5:01 PM 53.6 °F 51.8 °F 94% 29.57 in 10.0 mi Variable 3.5 mph - 0.00 in Rain Light Rain
5:12 PM 53.6 °F 51.8 °F 94% 29.57 in 10.0 mi West 3.5 mph - 0.01 in Rain Light Rain
5:22 PM 53.6 °F 51.8 °F 94% 29.57 in 10.0 mi WNW 5.8 mph - 0.01 in Rain Light Rain
5:38 PM 53.6 °F 51.8 °F 94% 29.58 in 1.8 mi NW 4.6 mph - 0.03 in Rain Heavy Rain
5:47 PM 53.6 °F 50.0 °F 88% 29.58 in 3.0 mi NNW 6.9 mph - 0.05 in Rain Light Rain
5:53 PM 53.1 °F 50.0 °F 89% 29.60 in 8.0 mi North 8.1 mph - 0.05 in Rain Light Rain
6:07 PM 53.6 °F 51.8 °F 94% 29.58 in 10.0 mi NW 3.5 mph - 0.00 in Rain Light Rain
6:40 PM 53.6 °F 50.0 °F 88% 29.59 in 10.0 mi NW 5.8 mph - 0.00 in Rain Light Rain
6:53 PM 53.1 °F 50.0 °F 89% 29.61 in 10.0 mi NNW 4.6 mph - 0.00 in   Overcast
7:53 PM 52.0 °F 50.0 °F 93% 29.63 in 10.0 mi Calm Calm - 0.01 in   Overcast
8:15 PM 51.8 °F 51.8 °F 100% 29.61 in 10.0 mi Calm Calm - N/A   Overcast
8:53 PM 52.0 °F 48.9 °F 89% 29.64 in 10.0 mi Variable 3.5 mph - N/A   Overcast
9:53 PM 52.0 °F 48.9 °F 89% 29.66 in 10.0 mi WNW 4.6 mph - N/A   Overcast
10:53 PM 52.0 °F 46.9 °F 83% 29.68 in 10.0 mi Calm Calm - N/A   Mostly Cloudy
11:53 PM 51.1 °F 46.9 °F 86% 29.70 in 10.0 mi WNW 3.5 mph - N/A   Partly Cloudy